Location: Krakow
(50.0212°N, 19.9423°E)
Time: 21:12:47
(UTC+02:00)

O/OREOS (USA 219) - Visible Passes

Search period start: 22 April 2024 00:00
Search period end: 02 May 2024 00:00
Orbit: 621 x 646 km, 72.0° (Epoch: 22 May)

Date Brightness Start Highest point End Pass type
(mag) Time Alt. Az. Time Alt. Az. Time Alt. Az.
22 Apr ? 02:49:30 10° N 02:53:11 24° NE 02:56:49 10° ESE visible
22 Apr ? 04:28:30 10° NW 04:32:56 55° WSW 04:37:18 10° S visible
22 Apr ? 20:25:48 10° W 20:29:16 21° NW 20:32:44 10° N visible
23 Apr ? 03:11:14 10° NNW 03:15:33 41° NE 03:19:47 10° SE visible
23 Apr ? 04:50:58 10° NW 04:54:46 27° WSW 04:58:33 10° SSW visible
23 Apr ? 20:49:43 10° WNW 20:51:51 13° NW 20:53:58 10° N visible
24 Apr ? 01:54:47 10° N 01:57:32 16° NE 02:00:15 10° ENE visible
24 Apr ? 03:33:11 10° NNW 03:37:43 81° ENE 03:42:11 10° SSE visible
25 Apr ? 02:16:15 10° N 02:20:02 25° NE 02:23:47 10° ESE visible
25 Apr ? 03:55:21 10° NW 03:59:43 50° WSW 04:04:02 10° S visible
26 Apr ? 01:00:52 10° NNE 01:01:45 10° NNE 01:02:37 10° NE visible
26 Apr ? 02:38:01 10° NNW 02:42:22 45° NE 02:46:40 10° SE visible
26 Apr ? 04:17:52 10° NW 04:21:32 25° WSW 04:25:10 10° SSW visible
27 Apr ? 01:21:29 10° N 01:24:25 17° NE 01:27:19 10° E visible
27 Apr ? 02:59:59 10° NNW 03:04:31 88° ENE 03:09:00 10° SSE visible
27 Apr ? 04:41:22 10° WNW 04:43:12 12° W 04:45:02 10° WSW visible
28 Apr ? 01:43:00 10° N 01:46:54 27° NE 01:50:44 10° ESE visible
28 Apr ? 03:22:12 10° NW 03:26:30 45° WSW 03:29:07 21° S visible
29 Apr ? 00:27:17 10° NNE 00:28:39 11° NE 00:30:00 10° NE visible
29 Apr ? 02:04:48 10° NNW 02:09:12 49° ENE 02:12:15 18° SE visible
29 Apr ? 03:44:48 10° NW 03:48:18 23° WSW 03:49:37 20° SW visible
30 Apr ? 00:48:12 10° N 00:51:17 18° NE 00:54:21 10° E visible
30 Apr ? 02:26:49 10° NNW 02:31:20 84° WSW 02:32:59 38° SSE visible
30 Apr ? 04:08:41 10° W 04:09:57 11° W 04:10:23 11° WSW visible
01 May ? 01:09:46 10° N 01:13:45 29° NE 01:16:30 16° ESE visible
01 May ? 02:49:03 10° NW 02:53:16 41° WSW 02:53:55 38° SW visible
01 May ? 23:53:50 10° NNE 23:55:32 12° NE 23:57:15 10° ENE visible
